Wind_Speed
27 28 32 32 29 26 18 17 19 18 15 11 10 10 12 11 9 10 6 2 3 5 6 9 8 9 9 11 11 11 11 10 11 11 11 11 12 11 9 10 10 15 6
29 27 32 36 34 30 22 23 21 20 17 11 10 8 9 12 11 10 10 7 8 8 9 10 10 12 14 10 12 11 10 10 11 9 9 6 5 3 1 6 4 3 4
38 31 35 37 32 29 27 21 25 20 16 15 12 10 7 12 14 13 11 5 6 8 9 8 8 10 9 11 12 11 11 10 8 6 4 3 2 8 4 7 7 4 5
41 38 34 33 33 29 25 18 26 21 21 17 17 14 12 10 11 10 7 5 9 7 5 4 5 5 8 8 7 7 8 7 6 4 2 3 6 2 4 3 4 7 9
41 39 35 36 34 30 27 20 23 20 16 17 19 16 15 12 11 10 9 8 8 5 5 8 10 11 11 7 6 5 4 5 4 4 5 5 4 2 3 6 5 3 5
41 39 33 33 35 30 26 23 25 20 15 21 23 18 16 13 12 12 9 6 5 6 9 8 8 6 4 4 5 5 8 7 7 6 4 4 3 6 5 7 8 7 5
41 40 36 34 38 33 28 24 24 21 18 26 24 20 18 16 14 11 9 8 8 9 8 7 8 6 6 7 6 6 7 8 8 8 6 5 7 6 5 5 6 5 12
43 41 39 34 37 33 29 24 25 22 22 27 25 20 17 16 14 12 10 10 10 10 8 8 11 8 7 8 8 7 7 8 7 9 9 9 7 8 7 4 2 1 4
41 43 40 37 36 32 29 24 25 22 24 28 26 24 22 19 17 13 12 10 9 7 7 8 7 4 3 4 5 6 6 7 8 7 6 5 6 8 9 6 5 1 2
38 40 41 40 36 32 27 24 20 21 27 27 25 23 22 19 17 14 11 9 8 8 9 9 5 2 1 1 3 3 2 3 3 3 4 2 2 4 7 9 7 5 5
39 39 39 37 34 31 26 23 20 19 25 27 23 22 20 19 17 14 12 11 10 9 7 5 4 1 2 2 1 0 1 2 1 2 4 4 3 2 2 4 7 8 6
40 39 38 37 35 30 26 23 21 19 22 21 21 21 19 17 15 12 13 12 10 8 6 4 3 1 1 2 1 1 0 0 1 1 4 2 3 3 5 7 5 4 4
39 39 38 37 35 30 27 25 23 20 21 22 21 20 19 16 14 13 12 10 9 7 5 3 1 1 2 2 4 5 4 1 2 4 5 3 3 5 3 5 8 9 8
42 41 40 39 36 31 29 29 27 25 29 28 25 24 22 17 12 12 10 10 9 7 5 3 3 2 3 2 1 3 4 3 3 5 8 8 6 5 5 5 3 5 8
38 40 41 41 40 36 32 30 29 29 33 30 30 30 24 21 16 15 12 10 9 9 7 6 5 6 5 6 7 7 9 11 8 5 4 7 6 5 6 5 7 8 6
39 42 43 43 43 40 37 34 31 34 35 34 34 33 27 23 19 19 16 13 11 9 8 8 8 9 6 6 6 11 12 10 10 8 4 5 10 9 7 9 12 11 7
38 46 47 47 48 44 41 40 37 37 38 36 35 34 32 27 24 22 19 16 14 11 9 10 10 10 9 9 10 11 10 9 9 11 7 5 9 11 8 8 8 9 6
26 36 46 48 50 47 40 30 26 24 29 40 40 38 34 29 27 24 20 17 14 11 11 10 9 9 9 10 10 9 8 8 7 10 10 7 5 10 8 8 10 9 6
7 13 41 45 35 35 30 26 18 17 24 42 33 40 33 32 28 24 19 17 13 12 10 9 8 7 7 7 7 8 9 7 8 13 11 8 6 9 10 11 13 12 8
19 18 11 27 25 26 27 18 10 13 36 69 58 43 35 30 27 24 20 16 13 11 12 12 10 9 7 6 3 4 4 5 5 10 11 10 10 10 10 11 14 14 10
18 16 4 23 28 28 22 13 37 35 31 46 39 43 30 25 19 19 18 13 10 11 12 11 10 9 9 5 3 2 4 5 3 5 8 9 10 10 10 13 13 11 9
17 12 8 16 16 15 19 23 21 21 12 20 18 30 18 16 17 15 12 9 10 12 10 9 9 6 4 4 4 4 3 5 5 6 8 9 6 6 7 7 7 8 8
18 17 5 6 6 4 7 16 22 9 9 19 8 13 12 14 12 10 7 8 9 8 7 7 6 5 6 7 9 11 11 8 6 6 8 10 9 8 6 5 6 6 8
12 12 10 14 21 18 18 9 8 4 4 8 18 18 14 12 10 8 7 7 8 8 7 6 7 7 8 9 10 12 14 14 12 11 11 13 12 11 11 9 8 11 11
15 18 21 17 9 3 3 6 5 0 10 13 14 14 11 9 6 5 5 6 6 4 3 4 7 10 12 12 11 10 11 12 13 15 18 17 15 13 13 11 12 11 13
17 16 13 12 11 8 5 3 1 1 9 9 7 5 6 9 6 7 8 5 3 2 5 7 8 9 9 9 8 9 9 9 12 16 19 19 16 17 16 14 14 13 11
Wind_Direction
180 186 187 191 189 176 191 188 181 184 175 178 169 158 162 173 173 178 197 205 222 231 236 224 267 250 263 259 255 266 277 279 285 279 275 282 283 283 308 291 281 251 249
186 180 190 185 186 196 196 196 190 187 187 183 173 175 178 196 186 195 204 231 246 236 234 243 250 258 258 253 264 269 264 275 264 270 280 288 293 294 356 342 314 229 258
189 185 185 190 198 201 194 201 201 205 206 203 195 192 176 198 212 202 219 271 206 209 233 225 250 234 242 253 260 253 256 253 258 264 278 309 339 343 32 60 47 29 30
203 198 195 198 202 202 196 206 202 198 200 206 204 202 205 212 200 210 208 247 221 225 234 244 256 257 247 267 269 263 248 233 217 228 225 295 314 7 329 327 18 4 351
205 203 197 208 207 201 198 208 197 204 210 216 203 196 209 218 217 213 235 240 239 252 270 268 270 273 263 263 245 227 220 193 209 232 255 281 290 287 301 304 5 27 31
202 202 198 205 208 205 204 205 201 206 220 203 200 204 200 210 215 217 232 242 247 251 259 272 284 263 269 243 238 228 224 218 234 245 269 285 270 275 280 287 307 326 328
197 201 195 202 202 200 204 200 207 214 213 193 198 204 213 218 224 234 245 243 240 234 247 280 312 273 260 272 260 249 245 242 251 263 260 267 270 271 300 300 313 326 329
197 195 194 198 195 199 201 203 210 212 202 198 200 205 211 209 221 232 235 234 236 240 256 279 291 283 276 265 259 249 241 247 264 276 278 277 267 253 267 310 336 216 324
192 195 196 201 199 201 202 208 210 212 208 199 202 207 213 220 223 225 235 226 234 247 262 280 293 276 262 251 241 240 256 269 275 275 260 251 255 256 236 240 258 296 274
190 195 198 200 203 203 204 204 211 219 206 203 210 213 214 213 215 222 226 238 233 249 253 267 269 265 189 205 244 252 262 276 272 264 287 310 263 262 241 234 236 232 232
190 194 196 197 200 201 201 202 209 214 208 206 206 207 208 210 218 223 229 231 231 249 243 235 227 217 81 50 331 176 121 131 121 33 4 334 317 273 249 242 240 244 242
191 191 192 194 196 199 202 208 208 213 209 204 201 204 210 219 217 227 228 221 221 209 201 191 195 154 63 46 56 33 52 284 67 17 354 10 15 341 272 255 247 254 265
189 190 190 193 196 203 208 208 211 214 208 195 198 209 216 221 225 229 216 208 205 198 182 178 200 332 12 31 74 81 74 244 282 308 320 324 331 345 331 274 256 257 263
189 189 192 197 203 208 210 207 208 210 201 198 201 211 218 227 229 223 215 212 210 210 204 211 223 243 273 272 286 278 345 356 318 310 296 309 308 320 332 334 307 269 255
189 195 200 203 204 208 211 208 207 204 197 203 210 210 216 221 217 222 217 215 216 217 222 242 259 272 269 279 282 283 305 308 298 301 334 323 318 310 306 318 324 324 281
197 205 210 209 207 212 211 209 206 202 201 207 207 210 216 223 217 218 211 218 222 223 233 243 245 249 259 273 282 283 289 286 273 281 314 10 357 313 311 313 314 320 306
208 210 214 216 214 215 213 208 207 205 207 212 211 213 217 222 209 210 214 217 219 222 234 238 241 246 255 262 269 283 289 278 265 263 278 292 350 351 326 323 326 313 271
232 218 222 225 224 217 212 206 212 204 210 210 214 217 219 222 208 209 213 218 218 224 235 239 243 251 253 261 267 279 293 294 263 237 269 275 326 334 339 342 349 348 290
352 259 239 234 218 208 194 185 178 176 330 346 233 221 221 214 205 205 208 213 218 228 237 242 241 247 266 274 274 286 292 287 260 244 273 277 284 305 309 321 332 337 311
343 348 304 221 203 186 181 176 206 297 310 301 308 234 223 204 204 207 203 206 220 227 229 229 238 249 269 282 258 316 308 305 287 256 265 281 294 295 302 313 324 332 323
2 3 268 198 183 185 200 243 327 314 303 321 242 211 207 197 196 190 200 195 213 229 238 245 254 260 275 220 210 35 10 360 320 305 297 296 294 294 303 311 317 324 324
46 45 130 154 170 213 248 242 256 249 275 7 112 146 168 170 175 182 187 190 221 234 238 248 236 212 177 209 236 258 292 347 4 31 17 5 344 323 322 336 343 336 315
35 44 59 210 176 217 233 160 163 174 257 131 152 130 154 171 173 178 203 220 229 232 193 171 183 196 243 259 256 251 258 265 284 308 340 352 345 331 311 297 321 336 346
38 53 69 115 122 126 143 148 160 151 123 139 161 165 181 179 188 199 211 210 189 180 199 229 252 263 263 263 255 253 247 256 271 285 298 319 323 321 312 273 287 306 293
75 89 96 93 95 98 229 221 226 159 180 173 180 182 186 168 164 145 143 171 180 189 246 297 300 301 296 287 287 280 270 272 273 274 288 302 307 313 313 282 273 288 294
98 86 83 80 78 71 56 38 217 223 149 158 182 178 161 135 144 147 150 144 156 243 280 272 277 287 309 318 303 282 277 279 268 277 291 299 302 307 308 299 284 265 287
Height
1523 1526 1529 1532 1535 1539 1541 1542 1545 1547 1549 1551 1554 1555 1555 1555 1554 1553 1553 1554 1554 1555 1556 1556 1556 1556 1556 1556 1555 1555 1556 1557 1557 1556 1556 1554 1552 1551 1551 1550 1550 1550 1550
1523 1524 1525 1528 1531 1534 1537 1540 1543 1544 1547 1549 1553 1554 1553 1553 1552 1552 1553 1554 1554 1554 1555 1553 1554 1554 1555 1555 1555 1554 1554 1554 1555 1555 1553 1552 1551 1549 1549 1549 1547 1548 1549
1519 1520 1523 1525 1529 1531 1535 1538 1540 1543 1545 1549 1550 1551 1551 1550 1550 1551 1553 1553 1553 1553 1553 1552 1552 1551 1552 1552 1553 1553 1553 1552 1552 1552 1552 1551 1551 1550 1549 1548 1548 1549 1548
1516 1517 1521 1524 1525 1529 1533 1535 1539 1541 1545 1547 1548 1548 1548 1549 1550 1551 1552 1551 1551 1551 1551 1551 1550 1550 1550 1549 1550 1550 1550 1550 1551 1551 1550 1550 1550 1550 1549 1548 1548 1548 1547
1513 1519 1517 1521 1524 1528 1530 1533 1536 1539 1542 1545 1547 1549 1548 1548 1549 1550 1550 1550 1549 1549 1548 1548 1548 1548 1548 1548 1548 1548 1548 1549 1549 1549 1549 1549 1548 1548 1548 1546 1547 1546 1545
1505 1513 1516 1520 1522 1526 1528 1530 1533 1536 1538 1540 1544 1546 1548 1547 1548 1548 1550 1548 1547 1547 1546 1546 1546 1545 1546 1546 1546 1546 1546 1546 1547 1547 1547 1547 1546 1546 1546 1544 1543 1544 1544
1499 1506 1511 1514 1518 1522 1526 1528 1531 1533 1534 1536 1540 1542 1544 1545 1545 1545 1545 1544 1544 1545 1545 1544 1543 1543 1543 1544 1545 1545 1545 1545 1545 1545 1546 1545 1545 1545 1545 1544 1543 1542 1542
1495 1502 1504 1508 1513 1517 1521 1525 1528 1529 1531 1533 1536 1539 1541 1542 1542 1542 1542 1542 1542 1542 1542 1541 1540 1540 1541 1541 1542 1543 1542 1543 1543 1543 1543 1543 1543 1543 1543 1542 1542 1542 1542
1491 1498 1503 1506 1509 1513 1517 1520 1523 1525 1526 1528 1532 1534 1536 1537 1539 1540 1540 1540 1539 1539 1539 1538 1537 1537 1537 1538 1539 1539 1540 1540 1540 1540 1540 1541 1540 1540 1540 1540 1540 1540 1541
1489 1494 1499 1503 1507 1510 1513 1517 1521 1522 1525 1527 1529 1532 1534 1535 1536 1537 1538 1538 1538 1537 1537 1536 1535 1534 1535 1536 1536 1536 1536 1536 1536 1537 1538 1539 1538 1539 1539 1539 1539 1538 1539
1486 1491 1497 1503 1506 1510 1513 1517 1521 1523 1525 1528 1531 1533 1534 1535 1536 1537 1537 1537 1537 1537 1536 1536 1535 1534 1533 1533 1534 1533 1533 1533 1534 1535 1536 1537 1538 1538 1537 1537 1537 1536 1536
1486 1490 1496 1501 1506 1509 1513 1517 1520 1524 1527 1531 1533 1535 1536 1537 1538 1538 1538 1538 1538 1538 1537 1536 1536 1535 1534 1533 1533 1533 1532 1531 1531 1532 1533 1534 1535 1535 1535 1534 1534 1534 1533
1486 1490 1495 1500 1505 1508 1510 1513 1519 1523 1528 1531 1534 1536 1538 1538 1539 1539 1539 1539 1539 1539 1538 1537 1536 1535 1535 1534 1534 1534 1533 1532 1531 1530 1531 1530 1530 1531 1531 1532 1531 1532 1532
1483 1486 1491 1494 1498 1500 1502 1506 1509 1513 1516 1520 1525 1530 1533 1537 1540 1541 1541 1540 1539 1539 1538 1539 1538 1537 1536 1535 1534 1534 1534 1533 1531 1529 1529 1527 1526 1527 1527 1529 1529 1529 1529
1481 1483 1485 1488 1492 1495 1497 1500 1502 1506 1510 1514 1519 1523 1527 1530 1532 1536 1538 1540 1540 1539 1538 1538 1538 1537 1537 1537 1536 1535 1534 1533 1531 1529 1528 1525 1524 1524 1524 1525 1526 1525 1525
1476 1478 1480 1484 1487 1486 1490 1494 1498 1501 1503 1504 1509 1515 1520 1522 1527 1530 1530 1534 1536 1537 1537 1536 1535 1535 1535 1535 1536 1535 1533 1531 1530 1528 1527 1525 1524 1524 1523 1522 1522 1522 1520
1472 1473 1474 1475 1476 1477 1479 1484 1487 1491 1497 1502 1507 1509 1511 1512 1517 1519 1524 1527 1529 1531 1532 1533 1532 1532 1532 1532 1533 1533 1532 1530 1528 1526 1526 1525 1523 1521 1521 1520 1519 1518 1517
1477 1476 1475 1473 1470 1475 1487 1498 1501 1506 1501 1495 1499 1503 1504 1508 1509 1512 1519 1523 1525 1526 1529 1530 1529 1530 1529 1529 1529 1529 1529 1529 1527 1525 1523 1522 1521 1520 1520 1518 1516 1515 1514
1478 1475 1474 1473 1477 1481 1484 1487 1489 1491 1503 1502 1512 1498 1499 1501 1507 1510 1513 1519 1521 1523 1524 1526 1526 1526 1528 1527 1525 1525 1526 1525 1525 1524 1523 1521 1520 1519 1517 1515 1513 1511 1511
1472 1471 1470 1470 1475 1482 1483 1487 1487 1492 1480 1486 1483 1501 1494 1498 1501 1505 1509 1511 1517 1520 1522 1521 1522 1523 1523 1523 1524 1522 1521 1521 1521 1520 1520 1520 1518 1517 1515 1513 1511 1509 1508
1474 1472 1469 1466 1470 1473 1473 1476 1473 1485 1488 1493 1440 1463 1486 1494 1502 1505 1511 1508 1514 1519 1521 1519 1520 1519 1520 1521 1522 1521 1523 1519 1517 1517 1516 1515 1514 1514 1513 1511 1508 1506 1506
1477 1475 1476 1473 1473 1473 1473 1466 1473 1477 1470 1470 1446 1450 1486 1495 1500 1505 1510 1507 1513 1516 1516 1517 1517 1517 1516 1518 1519 1519 1518 1520 1519 1514 1513 1512 1511 1510 1509 1508 1506 1505 1504
1478 1477 1475 1474 1475 1474 1473 1477 1482 1480 1480 1464 1468 1482 1491 1496 1500 1502 1507 1509 1512 1514 1515 1515 1516 1514 1514 1515 1517 1517 1518 1514 1517 1517 1512 1510 1509 1508 1507 1506 1505 1505 1504
1481 1479 1476 1476 1477 1479 1479 1480 1481 1480 1478 1479 1482 1492 1491 1493 1500 1502 1504 1508 1511 1514 1515 1515 1514 1512 1512 1512 1512 1514 1512 1511 1512 1513 1510 1507 1506 1505 1504 1503 1503 1502 1502
1485 1484 1484 1484 1483 1483 1481 1483 1484 1482 1479 1485 1492 1495 1496 1497 1500 1502 1505 1507 1510 1512 1513 1513 1512 1509 1508 1508 1509 1511 1511 1509 1509 1510 1510 1505 1502 1501 1500 1499 1499 1499 1499
1488 1488 1488 1488 1487 1488 1486 1486 1485 1485 1485 1489 1493 1494 1498 1498 1502 1504 1506 1507 1509 1511 1512 1511 1509 1509 1506 1504 1506 1507 1505 1504 1504 1504 1505 1504 1499 1497 1495 1494 1493 1494 1495